GFSGL_925_spd_273.txt.gz
Wind_Speed
24 43 40 37 42 43 42 41 33 35 27 26 26 29 40 40 39 38 32 30 29 31 31 26 25 23 24 21 21 20 19 17 7 16 15 14 20 19 26 26 28 28 30
31 20 37 38 37 39 40 41 42 37 36 30 29 25 30 39 40 38 36 36 32 29 27 25 31 28 25 23 24 25 24 24 19 17 19 18 21 24 26 26 28 23 21
33 29 22 35 36 37 39 41 42 40 34 38 32 28 32 35 38 39 38 36 36 35 35 32 30 28 28 28 24 22 23 22 18 18 20 23 24 23 22 25 21 24 25
29 31 27 22 38 38 39 39 40 42 40 37 39 34 33 36 39 38 38 36 36 35 34 35 33 28 31 30 28 27 25 25 25 22 21 22 22 24 25 22 26 29 30
26 26 27 26 20 34 40 41 40 40 42 41 40 39 38 36 40 40 37 36 36 37 35 33 32 31 28 26 28 30 27 27 24 20 20 20 26 23 22 21 22 23 29
26 23 26 28 26 26 27 42 43 41 42 41 38 41 40 38 37 38 39 35 37 36 36 38 38 37 33 29 29 30 30 31 24 18 19 19 27 24 23 19 16 18 6
31 29 25 28 30 30 31 33 44 41 42 41 39 39 37 39 39 38 37 36 33 37 39 40 40 38 35 33 27 29 32 31 30 28 27 30 26 23 24 19 18 17 17
31 31 30 28 30 31 32 34 34 40 43 39 35 36 37 35 39 42 39 38 40 37 40 40 39 39 40 37 32 31 30 26 33 31 32 37 32 28 26 20 17 17 18
28 29 30 28 30 30 31 33 35 31 37 35 30 35 35 35 34 38 40 41 42 40 36 32 33 38 38 33 31 34 33 29 20 21 23 24 26 26 24 17 14 12 7
24 29 33 35 34 32 30 32 32 32 31 29 30 32 24 26 30 25 24 23 26 29 29 28 33 36 35 37 35 34 32 32 28 24 24 26 26 22 17 18 16 10 6
26 30 34 36 34 33 34 32 30 29 26 22 23 24 25 25 23 22 23 19 24 23 25 29 36 38 29 38 40 40 38 34 26 22 24 20 19 16 15 16 12 11 8
31 30 35 37 35 33 32 32 29 24 21 20 21 20 22 23 17 17 21 21 24 20 27 24 29 32 35 46 42 37 29 29 25 21 16 16 14 12 13 13 11 9 8
29 32 36 36 35 34 28 28 24 24 23 21 18 15 16 14 11 9 8 8 7 12 8 9 6 9 12 10 9 7 3 8 11 12 13 16 15 15 12 12 8 7 7
31 35 33 30 32 22 19 18 21 20 18 14 14 14 14 14 11 10 9 10 10 5 4 8 5 8 6 7 11 7 6 7 11 11 13 13 14 13 13 11 11 5 9
28 30 30 29 19 10 9 4 6 9 16 21 19 17 14 14 11 8 9 10 8 5 4 4 8 8 8 8 7 8 9 9 11 12 12 13 12 14 14 11 8 4 3
21 14 6 13 9 9 6 16 15 16 15 14 14 15 15 11 9 9 8 8 6 6 4 2 4 7 8 8 8 6 5 7 5 5 8 7 8 14 14 10 6 6 5
24 9 12 17 11 9 15 13 13 15 14 12 12 13 13 14 11 10 9 6 4 3 3 1 0 3 2 7 5 7 8 10 6 8 6 5 7 9 9 6 4 1 1
26 22 18 24 16 24 22 9 13 8 12 15 11 13 12 10 12 13 13 12 8 8 7 9 13 13 8 6 6 8 10 10 9 7 3 4 8 10 7 5 5 7 2
31 32 19 28 29 35 25 34 26 20 17 9 16 15 12 10 10 10 8 8 5 2 4 4 5 6 7 8 8 9 6 7 5 6 6 6 8 9 7 2 6 7 8
10 14 21 23 24 25 29 30 28 18 13 9 15 14 8 4 4 6 6 4 4 7 4 4 6 7 8 10 8 8 7 8 8 9 9 7 6 3 4 2 6 3 4
31 16 20 29 32 27 22 11 13 9 7 6 6 4 3 2 1 5 7 6 9 15 13 12 3 9 9 8 8 9 8 8 9 7 7 9 7 6 3 5 4 4 3
28 14 7 15 25 18 13 13 20 11 8 3 11 11 14 15 14 12 10 8 8 10 12 13 14 14 5 10 13 13 14 11 9 11 9 9 9 9 7 6 7 7 8
18 11 16 17 13 16 14 13 0 7 8 6 7 11 12 15 13 10 11 14 9 8 8 10 12 15 11 8 7 7 16 5 4 2 10 14 17 17 11 11 11 9 6
10 4 8 9 10 9 11 9 10 10 13 16 17 16 12 11 11 9 8 6 5 7 10 14 15 16 14 14 13 11 6 2 4 9 8 7 4 10 11 12 9 6 3
6 11 11 11 8 10 12 13 11 10 8 11 10 8 6 7 8 17 23 23 23 21 18 19 16 15 16 18 18 10 10 9 5 3 3 3 6 3 5 6 11 8 11
7 6 7 10 10 11 10 10 13 12 18 23 22 24 27 26 22 21 20 18 17 17 17 15 13 13 14 15 14 10 9 8 7 5 6 6 7 8 10 16 24 25 24

GFSGL_925_spd_276.txt.gz
Wind_Speed
15 21 27 29 39 39 40 40 45 44 44 39 34 37 42 41 41 40 41 40 38 38 34 32 30 27 27 27 24 23 21 16 10 21 21 23 23 19 20 19 17 21 18
15 21 23 25 27 35 39 43 41 44 45 45 39 36 40 40 41 42 42 39 40 40 39 35 37 35 33 30 26 26 26 25 22 20 23 18 20 21 22 20 21 19 23
18 20 23 24 21 28 37 40 40 40 43 45 42 42 39 36 39 40 43 42 40 42 41 38 35 33 30 30 31 31 30 28 25 22 24 24 26 24 20 21 21 21 21
20 21 23 23 24 24 22 34 39 38 39 39 41 41 45 42 40 39 39 41 42 42 42 41 41 41 41 36 33 34 33 29 28 26 27 29 28 24 19 20 21 22 25
19 23 26 24 25 26 27 25 29 38 42 43 40 41 39 41 42 41 39 39 40 41 41 41 40 40 39 39 36 34 32 32 31 27 25 25 24 24 22 18 18 21 24
16 21 25 27 25 29 29 28 28 29 37 43 43 41 41 38 40 39 42 39 37 37 36 41 42 40 39 38 36 34 31 31 32 25 24 21 28 28 23 19 18 13 5
20 19 22 27 24 25 29 28 29 29 30 38 44 45 41 40 39 39 39 41 38 39 39 37 40 41 41 40 38 37 37 35 35 35 31 30 28 32 29 20 18 17 17
20 20 22 23 27 24 30 31 30 29 29 31 37 31 34 33 29 34 39 38 40 34 38 42 43 42 41 37 35 36 36 36 37 38 37 36 38 32 33 26 20 17 16
21 20 20 23 27 31 30 32 35 30 30 32 30 34 39 30 22 35 18 22 35 41 37 32 35 36 38 37 35 35 36 38 36 36 34 32 33 32 23 23 19 15 6
22 26 29 29 29 29 31 33 34 32 31 31 30 32 32 22 21 42 32 30 45 37 26 24 22 14 18 30 32 35 30 37 27 31 38 32 28 29 26 25 24 20 10
31 35 35 33 33 32 34 34 29 31 32 30 27 30 27 30 32 28 23 29 30 24 21 23 28 31 39 30 31 35 35 37 36 39 39 35 31 29 29 28 25 24 16
30 32 32 32 33 31 30 34 30 30 29 28 26 23 25 27 28 30 28 30 33 33 33 34 28 28 23 27 30 40 34 35 36 30 30 27 25 29 27 24 25 23 17
31 32 30 35 32 30 28 29 28 28 25 24 21 18 18 23 26 27 26 24 25 27 25 21 10 17 26 26 29 19 16 20 25 26 22 25 29 28 27 22 20 18 14
31 32 30 31 33 29 27 28 27 21 21 21 20 19 17 20 20 20 16 13 10 12 13 7 3 2 2 5 10 8 11 13 16 17 17 17 12 14 19 20 23 17 14
30 29 28 29 28 27 25 22 21 23 20 18 18 20 21 17 18 15 15 15 12 8 5 3 5 8 8 6 5 5 6 6 9 8 10 11 12 10 15 20 17 16 10
27 24 23 22 22 24 20 16 9 10 10 13 16 21 19 16 17 16 13 12 9 6 3 3 6 8 10 9 9 7 5 2 4 6 5 4 3 7 8 16 19 16 12
28 28 22 16 11 8 8 10 7 18 13 11 13 14 14 15 15 14 13 10 7 7 8 7 6 8 11 11 10 8 12 10 9 11 14 12 16 17 16 14 7 17 15
33 29 27 29 24 12 9 11 20 20 17 16 18 19 18 15 15 14 12 10 10 7 6 8 9 10 9 10 12 12 11 9 7 7 9 16 17 18 12 10 13 12 13
37 25 31 31 36 23 25 21 27 30 24 23 23 23 18 16 12 14 10 10 7 5 6 7 5 3 3 2 3 4 4 6 6 9 7 7 11 14 13 11 8 7 9
30 22 23 32 29 24 21 24 21 31 27 20 28 25 20 14 8 8 8 10 8 7 5 2 2 3 3 3 2 3 3 3 4 8 7 9 10 8 8 10 13 15 18
15 11 13 28 21 10 26 18 19 12 16 10 9 14 23 19 16 16 16 14 14 17 17 18 11 1 1 3 4 4 2 0 1 1 2 6 6 4 2 1 2 4 5
22 7 9 6 15 19 15 19 21 24 21 10 9 18 17 14 11 9 10 12 12 14 15 17 15 19 15 11 4 3 2 1 5 6 6 5 5 4 3 3 3 3 5
13 19 13 11 1 4 13 20 13 6 5 10 16 16 14 15 12 14 15 16 17 17 18 20 20 19 17 16 15 12 8 9 8 8 11 10 7 8 8 6 5 4 3
5 11 16 16 11 11 18 19 17 14 17 18 16 15 17 17 14 12 20 24 24 23 22 23 22 18 13 15 15 15 12 7 4 4 4 6 9 8 2 4 10 12 14
15 15 17 13 15 18 22 24 24 27 26 29 25 28 30 26 23 23 23 22 19 18 18 17 18 18 17 15 13 13 12 13 11 9 7 7 5 4 5 12 7 4 3
22 13 7 11 13 17 20 21 17 19 20 19 19 19 19 19 17 16 16 15 15 14 12 14 14 13 12 12 10 8 7 6 6 7 8 7 5 6 7 10 11 14 19

GFSGL_925_spd_282.txt.gz
Wind_Speed
6 8 9 10 12 14 15 19 21 23 30 32 34 36 37 38 38 38 37 35 34 35 36 35 35 34 36 34 32 30 27 25 14 21 22 27 31 29 28 23 21 22 18
12 12 12 13 14 15 16 19 19 20 19 23 30 32 34 38 40 40 41 39 37 34 36 36 38 36 35 34 33 32 30 31 22 22 23 23 26 31 28 26 25 23 20
20 20 21 21 24 25 25 22 21 23 22 22 22 27 34 35 35 38 40 41 42 41 40 36 37 35 36 35 34 33 31 30 30 24 23 20 23 25 28 28 28 25 21
30 29 29 29 27 26 26 27 27 23 21 22 23 25 28 36 38 37 35 37 40 41 42 41 38 37 39 36 34 35 33 30 26 25 21 22 21 23 24 25 25 26 21
37 39 39 40 39 34 28 26 25 27 26 24 25 26 27 29 31 32 34 34 34 38 40 40 41 40 40 38 32 31 32 29 22 20 19 19 20 19 18 14 19 26 26
34 31 32 33 37 38 37 31 26 27 28 32 31 31 31 28 29 30 32 36 36 32 32 34 37 38 37 36 36 35 35 29 26 22 21 19 25 22 20 24 22 13 6
30 30 29 28 30 32 32 32 31 30 33 34 38 38 36 35 32 31 30 32 34 26 31 23 12 18 28 29 35 36 37 35 35 32 26 26 26 28 26 22 22 17 16
35 33 32 29 29 28 27 31 36 36 33 35 39 41 40 39 35 31 30 33 34 38 35 32 26 24 41 37 39 36 37 35 35 34 35 35 33 35 35 31 25 23 21
35 34 32 30 32 32 33 31 32 35 36 33 38 39 40 42 37 32 27 31 32 38 43 42 44 34 44 46 43 34 33 38 35 32 35 34 33 28 30 30 22 14 11
32 35 36 33 33 32 32 34 33 33 36 35 37 41 41 44 38 32 28 31 30 35 41 35 39 43 43 36 29 26 25 27 24 26 24 25 24 25 24 32 26 18 14
32 33 35 37 38 35 35 36 34 34 33 34 34 37 41 44 41 35 30 35 34 33 35 34 36 37 41 33 30 29 29 33 24 21 23 24 28 30 33 31 31 32 22
33 34 36 38 40 40 38 37 35 32 32 31 31 31 34 40 39 35 32 36 38 35 31 32 32 36 34 30 26 28 27 26 29 27 21 21 22 22 25 30 32 33 34
34 37 38 40 39 40 40 39 34 32 32 32 29 27 30 30 31 32 30 32 35 41 33 29 26 24 18 18 20 25 29 29 27 20 17 22 23 26 30 30 31 34 31
34 37 39 36 37 36 37 36 33 31 31 30 29 27 29 29 29 25 29 27 29 33 26 20 18 16 16 19 17 15 11 10 12 14 15 19 19 20 23 24 26 24 24
33 37 36 36 33 35 36 35 33 34 35 32 31 28 27 25 24 27 27 26 28 31 29 20 13 13 13 10 8 6 6 6 7 9 11 11 11 9 11 9 15 15 15
30 35 40 36 35 34 33 24 29 38 37 37 40 40 42 41 39 30 27 25 25 23 18 16 13 12 9 6 5 6 4 4 5 6 7 9 11 8 8 9 8 11 11
31 35 37 38 37 35 31 20 13 11 18 26 34 40 44 47 37 27 16 18 23 21 15 13 9 7 6 6 5 6 5 3 1 1 1 2 1 3 3 2 5 8 6
30 30 34 38 41 37 28 20 23 14 8 9 13 6 18 15 19 21 21 22 18 13 13 12 11 10 9 13 14 14 12 9 9 9 10 10 10 10 11 12 13 11 10
25 29 21 23 29 33 32 33 34 32 26 17 22 30 21 24 24 19 18 20 19 19 19 19 16 15 15 14 13 11 9 8 6 5 6 5 6 7 8 7 8 9 11
21 18 16 13 17 26 30 31 34 38 32 27 31 31 26 23 38 31 33 31 26 20 15 14 12 12 11 10 9 9 8 6 5 2 0 2 4 1 1 1 1 1 3
20 18 12 15 20 16 14 20 22 19 11 20 16 29 25 37 28 29 30 37 29 31 26 21 19 17 12 10 8 5 6 7 6 3 1 1 0 1 3 4 6 8 5
19 18 18 12 13 16 20 14 6 11 12 10 22 29 32 34 26 20 20 24 18 19 18 22 20 14 10 7 6 7 11 12 10 7 3 2 3 2 2 1 1 1 4
16 16 20 19 12 4 8 10 8 5 14 11 13 15 21 19 18 18 25 18 15 15 17 23 21 20 19 18 17 14 13 12 10 7 7 8 7 5 1 1 1 1 2
18 11 12 10 10 12 12 14 15 16 15 13 11 11 10 11 14 15 13 14 15 15 15 19 18 19 20 21 21 20 18 16 15 14 13 11 11 10 9 8 7 4 4
17 14 10 6 5 7 7 10 11 12 13 14 14 14 14 15 16 16 16 16 17 17 17 17 18 18 19 19 19 19 18 17 18 16 14 12 9 7 5 3 3 3 2
14 14 12 11 8 7 6 6 7 6 6 7 7 7 7 8 8 7 8 8 10 12 13 14 14 14 15 15 16 15 15 16 17 16 14 13 13 12 10 8 7 5 4

GFSGL_925_spd_285.txt.gz
Wind_Speed
14 13 12 12 13 14 13 12 13 15 15 16 17 19 21 23 23 24 25 25 25 24 24 23 24 26 24 22 21 23 24 23 22 26 24 22 20 19 21 18 17 15 15
15 14 14 16 17 16 17 17 17 17 17 17 16 17 19 23 25 25 26 26 26 27 28 27 28 24 24 24 23 23 24 23 24 23 25 24 25 24 22 18 18 17 17
17 17 18 18 19 20 20 21 20 20 19 18 16 16 17 18 22 26 28 28 27 28 28 29 30 29 26 25 23 23 23 23 23 24 26 24 23 20 20 20 19 18 18
21 21 21 21 22 24 25 24 23 22 22 21 19 18 18 19 21 23 25 29 29 29 30 30 32 30 30 28 26 25 27 23 24 23 26 25 23 21 20 20 20 18 18
22 24 26 27 27 27 26 26 25 25 25 24 22 22 21 21 22 21 23 25 28 31 30 30 31 31 32 30 25 22 23 24 24 26 27 25 24 21 20 19 18 18 17
33 32 32 32 32 31 29 29 28 27 25 26 25 24 25 25 26 28 29 28 28 29 30 31 32 31 28 27 22 23 30 31 29 30 29 26 26 24 23 22 20 19 14
30 33 35 33 34 34 34 33 32 31 31 30 30 29 29 29 30 36 34 32 30 30 30 31 31 30 28 28 24 19 35 43 42 41 34 31 29 27 23 22 22 22 20
28 30 30 30 32 32 33 35 35 34 34 34 34 33 34 35 33 37 39 36 32 34 34 35 35 34 38 41 43 44 55 46 40 37 37 36 31 28 26 25 24 24 24
26 28 31 32 34 35 35 35 36 35 36 35 36 35 35 37 34 38 40 30 31 35 36 35 37 40 45 44 37 38 34 31 26 25 34 34 34 34 30 20 21 18 21
27 30 31 33 35 37 38 39 38 37 38 36 37 36 37 40 38 42 42 32 32 34 34 35 39 43 42 47 44 37 30 33 24 25 25 22 28 30 23 22 22 21 19
25 27 31 33 38 41 43 42 40 39 39 38 37 36 37 37 37 40 43 37 35 33 33 32 32 36 43 44 43 33 33 29 26 27 25 24 20 19 20 21 25 29 26
22 26 30 33 38 39 41 43 43 41 40 38 35 36 37 36 37 40 41 44 42 36 35 31 33 31 32 36 42 40 36 32 27 20 18 18 22 20 19 21 26 24 27
28 32 36 38 39 40 39 37 37 37 37 35 32 31 32 32 31 31 36 37 39 42 40 35 32 32 32 29 27 27 31 29 26 21 20 21 21 22 23 20 25 27 28
32 33 38 37 42 42 39 35 34 34 34 32 30 30 30 28 28 28 28 26 31 37 43 42 38 33 27 23 22 21 24 26 28 23 21 22 21 17 16 16 19 22 23
32 32 30 37 39 39 41 37 35 37 36 32 30 31 26 27 28 27 28 18 20 29 31 25 23 23 22 21 21 20 19 14 12 10 12 11 11 11 11 11 12 14 15
28 26 27 34 31 38 39 41 38 36 25 33 41 40 32 33 34 36 40 37 38 30 22 20 18 19 18 19 17 15 13 12 8 7 5 3 4 6 7 8 8 9 10
22 24 23 28 23 31 40 40 38 37 27 16 16 15 34 52 49 47 44 43 42 43 20 18 17 18 16 17 14 12 10 9 8 7 5 4 3 2 2 3 4 4 5
20 24 20 20 21 21 34 39 38 36 27 28 30 24 27 13 24 32 37 32 17 19 18 16 15 15 14 14 15 16 18 16 13 12 11 9 10 9 9 10 14 16 16
16 19 18 17 23 16 19 34 30 34 35 32 34 41 40 24 27 13 12 7 11 16 20 20 19 19 19 16 18 17 12 11 12 12 12 9 7 8 9 9 12 16 19
17 22 20 15 16 12 12 20 28 25 25 34 38 40 42 33 30 25 26 23 24 24 22 21 21 20 16 15 13 11 10 10 8 8 8 7 5 3 3 5 6 13 14
16 17 18 12 13 13 10 8 13 21 21 17 23 38 36 29 36 34 31 28 28 24 21 22 27 24 19 18 17 15 14 13 10 6 4 4 3 3 3 3 5 5 8
16 17 16 13 11 14 9 12 12 18 18 16 14 13 24 29 26 36 30 32 31 28 27 25 25 23 21 20 18 18 18 17 13 8 6 6 3 2 3 3 3 4 5
14 15 15 13 11 12 13 11 7 5 10 7 10 14 13 9 15 21 27 28 30 31 27 25 26 24 21 20 19 16 13 12 12 11 10 8 7 6 5 4 4 4 4
13 13 13 13 12 11 11 12 11 11 8 8 8 7 7 6 9 11 11 11 14 16 18 17 21 21 21 22 22 20 18 16 15 15 13 11 10 9 8 10 10 10 9
15 13 14 13 13 11 11 12 13 12 11 11 11 11 10 9 10 11 12 12 12 15 15 15 17 18 20 22 21 21 19 20 19 17 15 14 13 12 10 8 8 4 5
13 13 13 11 11 10 11 11 11 12 13 12 11 11 11 12 11 9 8 9 10 11 12 13 14 15 15 17 16 16 18 18 19 17 13 12 12 11 10 9 10 8 8

GFSGL_925_spd_288.txt.gz
Wind_Speed
9 9 9 9 10 11 11 12 14 16 16 16 16 16 16 15 16 19 19 22 26 27 25 26 27 26 25 25 25 25 23 22 20 24 23 21 19 21 23 22 21 21 21
9 13 13 13 14 14 15 17 18 20 20 20 20 20 19 17 16 16 19 24 26 26 28 29 30 28 28 27 26 26 25 23 23 20 24 24 24 21 21 23 23 22 22
14 15 14 14 16 17 19 20 21 23 24 24 24 24 23 21 20 19 19 21 24 26 29 29 30 31 31 30 27 26 25 25 25 26 26 26 25 23 21 20 22 22 22
12 13 16 16 18 20 22 23 24 24 26 27 27 28 27 26 25 24 23 23 23 26 27 30 32 33 32 31 31 30 29 27 26 26 29 29 28 24 23 21 21 20 22
17 17 18 20 20 20 21 23 24 25 27 28 29 30 30 30 30 28 26 23 24 25 28 30 31 33 34 33 31 32 29 25 28 29 30 29 28 25 23 22 21 20 20
15 16 18 21 23 24 25 26 27 28 28 29 31 32 33 33 33 33 28 30 29 28 29 31 33 34 35 38 39 40 36 32 35 31 30 28 25 23 23 25 24 21 14
18 22 25 27 29 30 30 31 31 32 33 34 34 35 37 38 38 37 35 32 32 33 32 32 33 34 34 34 35 41 45 48 45 33 30 30 25 22 23 22 22 22 21
20 22 25 29 32 33 37 37 38 38 37 36 37 37 38 40 39 40 38 37 37 36 35 35 35 35 35 35 34 35 38 38 41 36 34 34 30 26 24 23 23 22 22
17 18 20 24 25 30 32 34 37 39 41 41 40 39 39 40 38 38 37 38 39 39 37 36 35 37 39 41 40 37 36 36 36 36 30 32 29 29 30 28 26 21 21
16 17 19 20 23 28 34 35 38 40 42 42 43 41 41 44 40 40 37 38 40 40 38 38 39 42 43 39 39 41 36 36 29 30 26 28 32 30 29 32 30 25 24
18 21 23 25 27 29 36 36 40 40 41 41 42 44 44 44 43 42 42 40 41 39 37 36 36 38 40 40 43 41 37 37 30 28 26 26 26 26 26 22 25 27 23
21 24 26 26 27 30 33 39 39 39 39 39 38 40 40 41 42 42 42 45 47 41 38 36 35 34 34 35 36 42 49 42 30 25 25 22 20 20 23 25 23 24 26
23 24 26 24 27 27 30 38 38 36 35 34 33 34 35 34 35 36 39 45 48 46 45 41 39 36 35 28 35 37 38 41 28 23 23 24 21 20 21 19 20 23 27
23 23 25 26 30 24 25 31 36 36 35 35 33 32 32 31 30 30 31 32 33 40 43 42 40 36 35 34 31 35 38 27 22 24 21 21 16 19 24 23 21 20 19
21 21 25 25 27 26 25 31 34 35 42 41 32 29 29 26 29 31 30 28 22 20 17 25 23 26 28 27 28 26 29 25 23 22 20 19 17 15 16 15 15 14 15
19 19 23 25 25 23 23 31 40 39 46 46 43 42 39 32 39 40 38 37 35 38 29 20 18 19 20 22 22 20 20 25 24 21 18 16 15 13 10 9 9 10 8
18 22 24 24 22 23 19 26 28 38 41 48 50 48 48 45 32 34 42 46 43 39 26 23 19 22 18 19 20 19 18 18 20 16 11 7 7 5 3 3 1 2 4
19 23 21 21 21 20 17 19 23 28 23 36 49 49 50 46 39 16 15 22 26 25 27 26 23 22 18 20 20 20 20 17 15 15 13 10 8 8 9 9 10 11 11
19 20 19 21 20 20 17 17 19 22 24 22 31 50 55 47 43 43 22 6 14 14 14 13 15 15 21 20 25 24 23 19 17 15 14 12 13 13 11 11 12 13 16
17 19 18 19 19 20 18 19 20 22 21 22 24 30 46 50 44 41 41 32 29 26 18 18 18 24 17 27 25 24 24 20 16 14 13 10 8 7 10 13 12 10 10
20 20 20 19 16 17 18 16 17 21 21 20 19 24 26 39 45 36 40 39 40 34 30 30 31 31 29 27 28 27 21 12 17 16 9 5 8 5 6 9 12 13 12
21 20 21 21 19 16 17 19 14 15 14 18 18 14 14 20 26 33 37 36 37 41 35 31 32 37 33 30 24 24 22 22 14 16 12 10 7 5 9 9 12 13 17
22 19 17 19 20 19 21 19 18 21 17 16 10 14 11 10 10 13 17 22 22 27 31 35 32 28 27 27 26 23 22 21 21 17 10 9 6 3 2 3 2 3 4
23 18 18 18 17 18 18 20 20 18 17 18 17 16 13 11 12 9 7 8 12 15 16 20 22 21 23 25 27 29 26 21 17 17 14 11 10 8 6 5 6 7 7
24 19 19 18 17 16 17 16 17 17 17 16 15 14 15 15 12 11 9 8 8 9 12 13 14 17 19 21 22 23 21 20 18 16 12 12 11 10 9 8 8 3 2
20 20 18 17 14 14 14 14 13 13 14 13 13 13 12 13 13 12 10 10 8 8 8 10 11 11 12 16 18 18 20 21 19 15 11 9 8 8 8 6 7 6 5

GFSGL_925_spd_291.txt.gz
Wind_Speed
13 10 5 8 9 11 10 11 11 14 16 19 20 20 21 21 21 20 20 20 22 24 23 27 29 24 28 29 28 28 25 25 21 23 25 23 20 17 21 21 22 23 24
12 12 7 9 12 13 14 15 17 19 19 22 23 24 24 24 24 23 22 23 23 23 24 27 25 25 28 28 30 31 31 29 25 20 22 22 24 24 25 26 24 22 23
10 7 11 11 12 14 16 18 19 22 22 24 25 26 27 27 28 27 26 25 25 27 27 27 26 25 27 28 29 30 31 32 33 29 28 30 31 28 26 23 21 23 21
6 4 5 10 13 16 18 20 21 22 25 26 27 29 30 31 31 31 29 29 28 29 31 29 27 27 28 29 29 30 33 35 33 28 26 25 25 24 25 24 22 22 22
5 7 9 10 12 14 15 18 20 22 25 27 29 30 32 33 34 32 30 30 29 28 28 28 30 32 33 30 30 30 29 30 30 31 28 28 26 25 23 24 23 22 22
11 11 11 13 15 17 18 20 23 26 27 29 31 32 35 35 36 39 40 35 34 34 33 32 32 34 37 42 41 38 40 33 30 30 30 28 29 25 24 23 23 20 9
6 7 9 11 14 16 17 21 25 28 28 29 32 33 36 36 37 38 38 38 37 37 38 38 36 36 35 34 34 37 40 42 47 42 33 32 30 29 24 20 20 20 21
8 9 12 14 17 20 23 27 30 32 31 33 35 35 37 38 38 39 38 38 40 43 44 41 40 39 38 35 35 36 35 35 37 40 42 46 38 29 26 24 21 21 23
10 11 13 14 17 20 23 24 27 30 34 36 36 39 40 43 41 41 39 36 39 42 42 44 44 44 42 41 40 38 38 42 37 35 37 36 35 37 32 27 27 23 23
14 14 16 18 20 21 22 24 28 31 33 36 41 41 43 46 43 41 40 39 39 40 42 44 46 48 45 41 41 36 36 38 34 34 30 30 36 37 33 33 29 25 24
16 18 19 21 23 22 22 24 28 32 32 36 38 38 44 44 45 43 43 42 41 39 39 38 38 41 44 49 52 45 42 36 32 30 31 29 29 28 28 27 31 31 28
17 19 21 22 23 23 24 24 28 33 31 34 37 39 38 40 41 42 42 46 46 42 42 40 39 39 38 36 46 48 48 44 36 29 28 28 29 29 29 28 27 30 31
18 21 21 21 24 21 21 19 26 27 30 32 34 36 39 37 36 38 41 43 45 47 44 43 43 44 50 48 41 33 30 31 30 27 27 27 27 30 29 18 18 20 25
19 22 21 22 23 16 18 20 23 26 23 22 29 34 39 40 36 32 30 31 34 40 43 48 47 41 38 42 39 32 33 29 28 25 25 25 27 28 25 21 19 18 18
20 20 23 21 22 18 17 21 21 25 25 24 25 28 40 41 42 50 44 35 29 29 22 13 10 16 20 29 30 32 32 25 26 24 23 23 22 25 21 19 19 18 16
20 20 20 22 23 22 19 23 24 28 23 30 31 37 46 55 60 53 48 38 41 44 34 21 15 17 21 23 24 26 27 28 27 26 26 22 24 21 18 18 17 14 13
19 20 21 23 21 24 24 23 23 27 29 29 27 36 46 65 65 56 42 21 24 33 26 23 19 19 24 25 25 23 24 27 25 23 20 20 19 18 17 13 11 2 3
19 22 24 20 20 23 21 21 21 24 25 29 26 30 40 59 61 49 45 23 5 10 16 22 23 23 25 27 26 21 18 19 20 20 21 20 18 15 12 9 6 6 7
21 22 20 23 23 19 25 18 21 23 22 27 23 24 30 45 48 46 45 38 27 17 13 18 21 22 26 28 24 19 20 19 21 20 20 14 19 21 17 14 13 14 14
20 23 24 22 24 21 22 24 19 19 17 24 18 17 26 28 42 44 37 41 35 32 34 32 28 22 23 24 27 19 21 19 15 20 19 17 19 19 17 16 15 15 13
21 22 23 23 23 21 22 21 19 19 16 17 18 12 13 17 22 31 34 33 37 39 44 41 36 37 35 35 26 31 32 28 19 30 23 21 17 18 15 9 7 7 13
21 25 20 22 26 21 24 26 17 17 17 15 14 6 7 12 13 19 24 29 33 38 35 33 31 44 40 40 40 33 36 22 12 18 21 8 7 11 9 4 11 12 15
22 24 19 25 21 26 22 22 24 20 22 20 12 8 1 5 5 7 13 15 21 21 26 26 31 37 35 33 32 30 25 14 19 14 5 7 11 1 17 23 20 19 15
24 25 22 22 22 21 20 23 21 19 18 18 19 18 13 2 1 2 3 6 10 14 15 17 22 20 17 21 22 22 21 20 23 23 19 18 19 13 14 16 10 10 14
27 27 27 21 16 16 17 17 18 17 16 16 15 17 16 18 16 3 3 3 4 7 10 12 14 15 16 16 20 20 19 19 18 17 15 14 12 14 12 11 12 8 7
25 25 20 21 20 16 14 16 15 14 13 14 13 14 15 14 15 13 14 14 6 2 3 5 7 8 8 11 15 16 19 20 17 15 13 11 11 12 12 10 10 11 6

GFSGL_925_spd_297.txt.gz
Wind_Speed
16 16 12 10 8 7 8 11 14 15 16 18 19 19 20 23 24 25 25 25 27 30 29 30 33 32 30 26 25 27 26 24 15 28 26 28 31 32 27 27 27 24 22
14 11 9 5 5 9 12 12 15 15 18 19 20 23 23 24 25 26 27 26 29 31 31 29 31 32 33 32 28 27 29 30 25 23 30 28 28 31 34 32 28 24 24
11 8 7 7 10 12 11 15 15 19 21 23 24 24 26 26 27 28 29 32 31 29 29 30 33 31 29 30 32 31 30 30 28 23 29 28 29 27 29 29 27 30 35
6 6 7 8 10 12 12 14 17 18 18 21 23 22 21 24 25 25 29 32 33 33 35 35 36 34 33 33 28 31 33 30 24 23 26 26 25 25 26 28 32 36 32
6 4 9 8 10 10 9 11 14 16 15 19 23 23 21 20 22 31 31 32 32 35 36 37 38 38 38 38 37 35 30 33 28 24 23 25 25 21 19 20 23 23 29
4 5 5 5 6 7 7 9 10 15 17 22 27 28 24 29 39 35 35 36 35 36 38 39 39 40 39 40 40 40 37 34 32 27 27 26 29 30 27 26 26 21 5
3 3 1 2 5 8 12 14 16 17 16 19 22 24 22 29 31 34 36 34 36 38 40 40 40 38 38 39 38 40 42 43 43 36 31 31 29 30 29 28 27 26 26
3 4 5 6 9 11 13 16 17 20 18 19 22 21 22 25 28 30 37 35 35 36 39 42 42 41 39 39 39 40 42 40 39 37 40 40 37 38 36 32 35 35 35
7 8 7 9 13 16 18 20 22 22 23 23 23 23 23 28 30 31 36 38 36 40 40 39 41 42 42 41 40 39 39 41 39 40 46 49 43 44 47 44 38 28 22
12 9 10 13 15 18 22 23 24 25 24 24 28 28 29 30 31 32 33 39 41 45 46 43 40 40 42 44 43 39 38 39 33 34 34 35 38 42 43 43 40 29 26
12 12 14 17 19 21 24 25 25 23 25 29 32 34 34 33 33 30 32 37 39 45 43 41 40 38 39 42 42 40 39 38 34 34 35 35 36 33 29 31 38 35 31
12 14 17 19 23 25 27 29 29 28 29 31 33 33 34 32 31 32 35 41 48 47 47 46 42 40 40 41 43 44 44 43 32 27 25 26 30 31 32 33 39 41 39
16 18 19 22 25 27 30 32 29 30 29 29 29 27 28 31 30 34 34 46 43 44 43 45 49 48 45 43 41 42 42 38 32 30 31 31 31 30 32 34 35 34 37
14 17 20 23 27 29 30 27 23 23 26 28 28 28 25 32 35 33 36 40 42 45 45 43 34 31 32 33 31 32 33 32 30 30 32 33 31 31 32 34 33 29 24
17 18 21 23 23 25 26 19 22 23 25 28 32 31 32 30 30 27 35 44 45 49 48 35 25 19 23 23 24 26 26 27 27 29 31 30 30 31 30 30 30 28 25
18 22 24 25 24 27 29 33 34 32 30 29 31 33 31 25 20 29 31 39 40 43 35 32 29 23 22 18 18 18 20 22 26 24 29 30 26 25 25 27 28 26 24
24 26 24 26 24 26 28 28 25 34 29 29 23 21 19 16 17 26 31 37 36 37 31 33 31 28 28 22 19 19 22 25 24 27 27 27 29 31 30 23 22 24 24
20 21 23 28 30 32 30 29 32 30 27 28 23 18 13 11 13 23 27 31 28 33 33 33 36 38 34 25 21 23 25 27 27 28 26 26 29 26 22 22 23 21 16
25 28 30 29 33 33 33 34 33 23 27 24 25 14 11 10 10 17 22 21 22 24 27 30 33 36 39 36 32 26 20 17 16 14 19 24 19 23 22 22 22 22 20
28 29 32 32 29 26 23 23 26 27 25 25 26 15 10 9 11 13 17 19 19 22 23 24 29 35 33 36 37 34 32 26 24 19 20 18 15 7 5 14 14 13 13
23 23 26 23 26 30 27 24 26 29 29 27 17 11 10 9 10 11 13 14 17 19 20 21 23 28 32 36 34 33 37 36 34 25 21 23 24 25 23 8 19 16 15
28 28 28 30 31 29 30 34 26 26 26 16 15 10 8 10 10 13 14 13 13 15 15 18 18 17 21 22 25 29 32 34 32 32 30 31 31 27 22 20 19 19 14
30 29 28 29 32 29 31 26 25 20 17 19 9 5 5 9 10 16 15 15 14 12 11 13 16 16 18 21 23 24 25 20 24 28 30 36 33 25 30 27 18 18 16
26 26 29 28 23 24 24 29 20 22 9 15 8 6 3 2 6 9 11 12 15 11 12 12 11 10 10 16 20 22 23 27 29 20 24 27 30 29 30 27 24 21 17
20 25 26 28 29 27 25 19 16 7 13 20 10 7 6 6 7 9 10 6 8 13 16 15 12 9 6 9 13 17 19 18 20 21 19 20 21 23 22 15 16 18 17
19 22 25 28 32 29 22 15 11 13 20 24 13 7 8 7 16 8 13 13 9 8 7 13 14 11 9 7 8 10 13 15 14 16 13 18 22 21 23 21 20 19 16